AirNav   Pilot Hours Calculator
 
 1203 users online  

SC82 Oakhill Airpark
Williamson, South Carolina, USA

GOING TO WILLIAMSON?


FAA INFORMATION EFFECTIVE 04 NOVEMBER 2021

Location

FAA Identifier: SC82
Lat/Long: 34-35-07.8600N 082-21-08.2200W
34-35.131000N 082-21.137000W
34.5855167,-82.3522833
(estimated)
Elevation: 837 ft. / 255 m (estimated)
Variation: 04W (1990)
From city: 8 miles E of WILLIAMSON, SC
Time zone: UTC -4 (UTC -5 during Standard Time)
Zip code: 29697

Airport Operations

Airport use: Private use. Permission required prior to landing
Activation date: 04/1993
Control tower: no
ARTCC: ATLANTA CENTER
FSS: ANDERSON FLIGHT SERVICE STATION
Attendance: UNATNDD
Wind indicator: yes
Segmented circle: no
Lights: ACTVT LIRL RY 10/28 122.9.

Airport Communications

WX AWOS-3 at GYH (10 nm N): 127.325 (864-277-5674)
WX ASOS at GMU (16 nm N): 127.075 (864-239-0014)
WX ASOS at AND (18 nm W): 120.675 (864-226-9522)
WX ASOS at GSP (20 nm N): 134.25 (864-879-0614)

Nearby radio navigation aids

VOR radial/distance  VOR name  Freq  Var
GRDr335/22.3GREENWOOD VORTAC115.5001W
ELWr065/23.6ELECTRIC CITY VORTAC108.6000E
SPAr220/34.1SPARTANBURG VORTAC115.7002W

 
NDB name  Hdg/Dist  Freq  Var  ID
DYANA149/7.833804WGY --. -.--
JUDKY186/11.752105WGM --. --
CORONACA334/23.823907WGIW --. .. .--
UNION COUNTY266/35.532606WUOT ..- --- -
ENOREE302/39.127807WEOE . --- .

Airport Services

Runway Information

Runway 10/28

Dimensions: 2400 x 100 ft. / 732 x 30 m
Surface: turf, in good condition
Runway edge lights: low intensity
RUNWAY 10  RUNWAY 28
Traffic pattern: leftleft
Obstructions: 50 ft. trees, 1000 ft. from runway50 ft. trees, 800 ft. from runway

Airport Ownership and Management from official FAA records

Ownership: Privately-owned
Owner: OAKHILL AIRPARK PROPERTY OWNERS
2 AERONCA ROAD
BELTON, SC 29627
Phone 864-299-6018
Manager: MICHAEL JODOIN
21 AERONCA ROAD
BELTON, SC 29627
Phone (864) 419-8565

Airport Operational Statistics

Aircraft based on the field: 15
Single engine airplanes: 13
Multi engine airplanes: 1
Helicopters: 1
    

Additional Remarks

FOR CD CTC ATLANTA ARTCC AT 770-210-7692.

Instrument Procedures

There are no published instrument procedures at SC82.

Some nearby airports with instrument procedures:

KGYH - Donaldson Field Airport (10 nm N)
KGMU - Greenville Downtown Airport (16 nm N)
KAND - Anderson Regional Airport (18 nm W)
KGSP - Greenville Spartanburg International Airport (20 nm N)
KLUX - Laurens County Airport (21 nm E)
 
Loc | Ops | Rwys | IFR | FBO | Links
Com | Nav | Svcs | Stats | Notes
Aerial photo
WARNING: Photo may not be current or correct
Aerial photo of SC82 (Oakhill Airpark)
Photo by Chris Goodwin
Photo taken 16-Sep-2016
looking east

Do you have a better or more recent aerial photo of Oakhill Airpark that you would like to share? If so, please send us your photo.

 
Sectional chart

 
Airport distance calculator
Flying to Oakhill Airpark? Find the distance to fly.

From to SC82

Sunrise and sunset
Times for 30-Nov-2021
 Local
(UTC-5)
 Zulu
(UTC)
Morning civil twilight06:5111:51
Sunrise07:1812:18
Sunset17:1822:18
Evening civil twilight17:4622:46

Current date and time
Zulu (UTC)  01-Dec-2021 00:11:15
Local (UTC-5)  30-Nov-2021 19:11:15
 
METAR
KGYH 
10nm N 
302347Z 19005KT 10SM CLR 13/02 A3012
KGMU 
16nm N 
302353Z 21004KT 10SM CLR 14/01 A3012 RMK AO2 SLP202 T01390011 10183 20139 51012
KAND 
19nm W 
302356Z AUTO 23008KT 10SM CLR 13/03 A3012 RMK AO2 SLP201 T01280033 10183 20122 53010
KGSP 
20nm N 
302353Z 17004KT 10SM CLR 11/01 A3012 RMK AO2 SLP203 T01110006 10178 20094 51013
KLUX 
21nm E 
302355Z AUTO 20004KT 10SM CLR 11/02 A3013 RMK AO2
TAF
KGMU 
16nm N 
301735Z 3018/0118 24008KT P6SM SKC TEMPO 3018/3021 24008G16KT FM010300 26003KT P6SM FEW180 FM010800 VRB02KT P6SM FEW150 FM011400 20005KT P6SM FEW150
KAND 
19nm W 
301735Z 3018/0118 25010KT P6SM SKC TEMPO 3018/3022 25010G20KT FM010300 VRB02KT P6SM FEW250 FM011400 22005KT P6SM FEW200
NOTAMs
Click for the latest NOTAMs
NOTAMs are issued by the DoD/FAA and will open in a separate window not controlled by AirNav.

 

 
 

Would you like to see your business listed on this page?

 If your business provides an interesting product or service to pilots, flight crews, aircraft, or users of the Oakhill Airpark, you should consider listing it here.  To start the listing process, click on the button below
 
Add a business
 

Other Pages about Oakhill Airpark

Update a link
 
Copyright © AirNav, LLC. All rights reserved. Privacy Policy  Contact